EW7129 Weather Reports


time (UTC)temp
F
wind
direction
speed
knots
gust
knots
rain 1hr
in
rain 24hr
in
rain mn
in
humidity
%
barometer
mb
20260505173319 56 235 0.0 7.0 0.00 0.02 0.02 69 816.6
20260505172819 56 227 0.0 7.0 0.00 0.02 0.02 69 816.4
20260505172320 56 271 0.0 7.0 0.00 0.02 0.02 69 816.5
20260505171824 56 209 0.0 4.3 0.00 0.02 0.02 72 816.5
20260505171820 56 298 0.0 7.0 0.00 0.02 0.02 72 816.4
20260505170820 55 210 0.0 4.3 0.00 0.02 0.02 73 816.6
20260505170320 55 259 0.0 0.9 0.00 0.02 0.02 75 816.5
20260505165819 54 279 0.0 1.7 0.00 0.02 0.02 75 816.4
20260505165325 54 246 0.0 0.0 0.00 0.02 0.02 77 816.3
20260505165319 54 243 0.0 1.7 0.00 0.02 0.02 75 816.5
20260505164927 54 225 0.0 0.0 0.00 0.02 0.02 77 816.3
20260505163819 53 251 0.0 2.6 0.00 0.02 0.02 79 816.3
20260505163317 53 255 0.0 3.5 0.00 0.02 0.02 79 816.3
20260505162822 52 267 0.0 0.0 0.00 0.02 0.02 81 816.4
20260505162817 52 282 0.0 3.5 0.00 0.02 0.02 79 816.3
20260505161818 52 267 0.0 0.9 0.00 0.02 0.02 80 816.4
20260505161322 52 284 0.0 0.0 0.00 0.02 0.02 82 816.3
20260505161318 52 209 0.0 0.9 0.00 0.02 0.02 81 816.3
20260505160929 51 284 0.0 0.0 0.00 0.02 0.02 81 816.2
20260505160925 51 284 0.0 0.0 0.00 0.02 0.02 82 816.2
20260505153318 50 317 0.0 0.0 0.00 0.02 0.02 86 816.2
20260505152818 49 317 0.0 0.0 0.00 0.02 0.02 86 816.3
20260505152319 49 319 0.0 0.0 0.00 0.02 0.02 85 816.1
20260505151818 49 299 0.0 0.0 0.00 0.02 0.02 85 816.1
20260505151318 49 299 0.0 0.0 0.00 0.02 0.02 84 816.2
20260505150817 49 290 0.0 0.0 0.00 0.02 0.02 84 816.1
20260505150317 48 290 0.0 0.0 0.00 0.02 0.02 84 816.3
20260505140315 47 323 0.0 0.0 0.00 0.02 0.02 87 815.8
20260505130311 46 317 0.0 0.0 0.02 0.02 0.02 86 815.9
20260505124812 46 317 0.0 0.0 0.02 0.02 0.02 84 816.2
20260505124312 46 317 0.0 0.0 0.02 0.02 0.02 83 815.9
20260505123810 46 296 0.0 0.0 0.02 0.02 0.02 82 816.0
20260505123309 46 270 0.0 3.5 0.02 0.02 0.02 82 816.4
20260505122813 47 267 0.0 6.1 0.02 0.02 0.02 81 816.8
20260505122809 47 219 0.0 6.1 0.02 0.02 0.02 81 816.7
20260505121809 47 260 0.0 0.0 0.01 0.01 0.01 81 817.0
20260505121309 47 244 0.0 1.7 0.01 0.01 0.01 79 816.8
20260505120811 48 266 0.9 13.0 0.01 0.01 0.01 77 816.9
20260505120310 48 265 0.9 13.0 0.00 0.00 0.00 75 816.8
20260505115809 49 253 0.9 7.8 0.00 0.00 0.00 72 816.7
20260505115309 50 271 0.9 8.7 0.00 0.00 0.00 69 816.6
20260505114809 50 307 0.9 8.7 0.00 0.00 0.00 68 816.6
20260505114309 51 303 1.7 16.5 0.00 0.00 0.00 68 816.5
20260505113807 51 236 1.7 16.5 0.00 0.00 0.00 67 816.5
20260505113307 52 257 0.9 12.2 0.00 0.00 0.00 66 816.4
20260505112914 52 244 0.0 5.2 0.00 0.00 0.00 68 816.4
20260505112813 52 275 0.9 10.4 0.00 0.00 0.00 66 816.6
20260505112808 52 179 0.9 10.4 0.00 0.00 0.00 66 816.4
20260505111913 52 271 0.0 0.9 0.00 0.00 0.00 73 816.4
20260505110807 52 281 0.0 6.1 0.00 0.00 0.00 73 816.3
20260505110307 52 250 0.0 6.1 0.00 0.00 0.00 73 816.2
20260505101303 52 284 0.0 3.5 0.00 0.00 0.00 73 816.3
20260505100800 52 273 0.0 3.5 0.00 0.00 0.00 73 816.2
20260505100301 52 269 0.0 5.2 0.00 0.00 0.00 73 816.2
20260505095804 52 280 0.0 5.2 0.00 0.00 0.00 73 816.3
20260505095300 52 207 0.0 0.0 0.00 0.00 0.00 72 816.5
20260505094805 52 288 0.0 5.2 0.00 0.00 0.00 72 816.5
20260505094800 52 205 0.0 7.8 0.00 0.00 0.00 72 816.7
20260505094259 52 242 0.0 7.8 0.00 0.00 0.00 72 816.6
20260505093258 52 233 0.0 6.1 0.00 0.00 0.00 72 816.2
20260505092803 51 262 0.0 2.6 0.00 0.00 0.00 72 816.3
20260505092759 51 252 0.0 6.1 0.00 0.00 0.00 72 816.3
20260505091758 51 261 0.0 3.5 0.00 0.00 0.00 74 816.4
20260505091257 50 261 0.0 3.5 0.00 0.00 0.00 75 816.5
20260505090759 49 277 0.0 4.3 0.00 0.00 0.00 77 816.3
20260505090755 50 265 0.0 4.3 0.00 0.00 0.00 76 816.4
20260505085759 49 263 0.0 0.9 0.00 0.00 0.00 77 816.5
20260505085755 49 270 0.0 0.9 0.00 0.00 0.00 77 816.4
20260505085401 49 313 0.0 0.0 0.00 0.00 0.00 77 816.4
20260505084754 49 313 0.0 0.0 0.00 0.00 0.00 77 816.5
20260505083756 49 317 0.0 0.0 0.00 0.00 0.00 77 816.5
20260505083255 49 317 0.0 0.0 0.00 0.00 0.00 77 816.6
20260505082754 49 317 0.0 0.0 0.00 0.00 0.00 76 816.6
20260505082254 49 317 0.0 0.0 0.00 0.00 0.00 76 816.9
20260505081753 49 317 0.0 0.0 0.00 0.00 0.00 75 816.9
20260505081257 49 317 0.0 0.0 0.00 0.00 0.00 75 816.7
20260505081253 49 317 0.0 0.0 0.00 0.00 0.00 75 817.0
20260505080253 50 317 0.0 0.0 0.00 0.00 0.00 74 816.9
20260505075759 50 317 0.0 0.0 0.00 0.00 0.00 72 817.3
20260505075753 50 317 0.0 0.0 0.00 0.00 0.00 74 816.9
20260505075253 50 317 0.0 0.0 0.00 0.00 0.00 73 816.9
20260505074753 50 317 0.0 0.0 0.00 0.00 0.00 72 817.1
20260505074359 51 317 0.0 0.0 0.00 0.00 0.00 71 817.3
20260505073253 51 317 0.0 0.0 0.00 0.00 0.00 71 817.2
20260505072751 51 317 0.0 0.0 0.00 0.00 0.00 71 817.2
20260505072251 51 317 0.0 0.0 0.00 0.00 0.00 71 816.9
20260505071751 51 317 0.0 0.0 0.00 0.00 0.00 70 817.1
20260505071250 51 317 0.0 0.0 0.00 0.00 0.00 70 817.2
20260505070750 51 317 0.0 0.0 0.00 0.00 0.00 70 817.1
20260505070250 51 318 0.0 0.0 0.00 0.00 0.00 70 816.9
20260505065750 51 318 0.0 0.0 0.00 0.00 0.00 70 817.0
20260505065251 51 318 0.0 0.0 0.00 0.00 0.00 69 817.2
20260505064754 52 318 0.0 0.0 0.00 0.00 0.00 68 817.2
20260505064750 51 318 0.0 0.0 0.00 0.00 0.00 69 817.2
20260505063750 52 318 0.0 0.0 0.00 0.00 0.00 67 817.3
20260505063251 52 318 0.0 0.0 0.00 0.00 0.00 67 817.3
20260505062750 52 318 0.0 0.0 0.00 0.00 0.00 66 817.2
20260505062251 53 317 0.0 0.0 0.00 0.00 0.00 66 817.1
20260505061748 53 311 0.0 0.0 0.00 0.00 0.00 66 816.9
20260505061254 53 325 0.0 0.0 0.00 0.00 0.00 65 816.7
20260505061248 53 330 0.0 0.0 0.00 0.00 0.00 65 816.8
20260505060247 53 327 0.0 0.0 0.00 0.00 0.00 64 816.6
20260505055747 53 319 0.0 0.0 0.00 0.00 0.00 64 816.6
20260505055247 53 5 0.0 0.0 0.00 0.00 0.00 63 816.7
20260505054746 53 348 0.0 0.0 0.00 0.00 0.00 63 817.0
20260505054246 53 334 0.0 0.9 0.00 0.00 0.00 63 816.8
20260505053745 53 319 0.0 0.9 0.00 0.00 0.00 63 817.1
20260505053243 53 330 0.0 0.0 0.00 0.00 0.00 63 817.3
20260505052743 53 318 0.0 0.0 0.00 0.00 0.00 63 817.6
20260505052243 54 315 0.0 0.9 0.00 0.00 0.00 63 817.6
20260505051744 54 341 0.0 0.9 0.00 0.00 0.00 63 817.6
20260505051245 54 323 0.0 0.9 0.00 0.00 0.00 62 817.5
20260505050744 54 323 0.0 0.9 0.00 0.00 0.00 62 817.5
20260505050243 54 333 0.0 0.0 0.00 0.00 0.00 62 817.5
20260505041743 55 310 0.0 4.3 0.00 0.00 0.00 60 817.4
20260505041242 55 310 0.0 4.3 0.00 0.00 0.00 59 817.4
20260505040741 55 344 0.0 4.3 0.00 0.00 0.00 58 817.5
20260505040242 55 270 0.0 8.7 0.00 0.00 0.00 57 817.6
20260505035742 56 306 0.0 10.4 0.00 0.00 0.00 56 817.6
20260505035238 56 346 0.0 10.4 0.00 0.00 0.00 55 817.6
20260505034742 57 292 0.0 7.0 0.00 0.00 0.00 52 817.4
20260505034737 56 311 0.0 4.3 0.00 0.00 0.00 54 817.6
20260505034236 57 282 0.0 7.0 0.00 0.00 0.00 53 817.5
20260505033841 57 304 0.0 7.0 0.00 0.00 0.00 51 817.5
20260505032735 57 276 0.0 2.6 0.00 0.00 0.00 50 817.7
20260505032236 58 259 0.0 4.3 0.00 0.00 0.00 49 817.6
20260505031735 58 315 0.9 8.7 0.00 0.00 0.00 49 817.6
20260505031236 58 317 0.9 8.7 0.00 0.00 0.00 48 817.6
20260505030741 58 291 0.0 10.4 0.00 0.00 0.00 46 817.7
20260505030736 58 278 0.9 10.4 0.00 0.00 0.00 46 817.4
20260505030341 58 319 0.9 13.0 0.00 0.00 0.00 45 817.1
20260505025234 58 328 0.9 13.0 0.00 0.00 0.00 44 816.9
20260505024734 59 345 0.9 12.2 0.00 0.00 0.00 44 816.9
20260505024233 59 341 1.7 11.3 0.00 0.00 0.00 42 816.9
20260505023731 60 333 1.7 11.3 0.00 0.00 0.00 41 816.7
20260505023231 61 328 0.9 6.1 0.00 0.00 0.00 38 816.7
20260505022730 62 5 0.9 13.0 0.00 0.00 0.00 36 816.7
20260505022229 62 309 0.9 13.0 0.00 0.00 0.00 33 816.7
20260505021729 63 323 0.9 8.7 0.00 0.00 0.00 32 816.7
20260505021229 63 269 0.0 6.1 0.00 0.00 0.00 30 816.6
20260505020729 64 234 0.0 6.1 0.00 0.00 0.00 30 816.6
20260505020230 64 316 0.9 6.1 0.00 0.00 0.00 29 816.5
20260505015733 64 304 0.9 10.4 0.00 0.00 0.00 29 816.4
20260505015729 64 284 0.9 10.4 0.00 0.00 0.00 29 816.4
20260505015227 64 248 0.9 6.1 0.00 0.00 0.00 28 816.4
20260505014228 64 238 0.9 12.2 0.00 0.00 0.00 28 816.2
20260505013728 65 276 0.9 12.2 0.00 0.00 0.00 28 816.1
20260505013227 65 275 0.9 12.2 0.00 0.00 0.00 27 816.1
20260505012727 65 271 1.7 12.2 0.00 0.00 0.00 27 816.0
20260505012228 66 288 0.9 11.3 0.00 0.00 0.00 26 816.1
20260505011732 67 232 0.9 13.0 0.00 0.00 0.00 24 815.9
20260505011727 66 228 0.9 9.6 0.00 0.00 0.00 26 816.1
20260505011228 67 297 0.9 9.6 0.00 0.00 0.00 25 816.0
20260505010230 67 275 0.9 13.0 0.00 0.00 0.00 24 815.7
20260505010225 67 244 0.9 12.2 0.00 0.00 0.00 23 815.7
20260505005831 68 314 0.9 9.6 0.00 0.00 0.00 23 815.7
20260505004725 69 213 0.9 7.8 0.00 0.00 0.00 23 815.7
20260505004224 69 243 0.9 7.8 0.00 0.00 0.00 22 815.6
20260505003725 69 266 0.9 10.4 0.00 0.00 0.00 21 815.5
20260505003225 69 243 0.9 10.4 0.00 0.00 0.00 20 815.4
20260505002723 69 313 0.9 10.4 0.00 0.00 0.00 19 815.4
20260505002223 69 223 0.9 4.3 0.00 0.00 0.00 18 815.4
20260505001722 70 238 0.0 4.3 0.00 0.00 0.00 20 815.3
20260505001224 70 221 0.9 7.0 0.00 0.00 0.00 20 815.3
20260505000721 70 242 0.0 7.0 0.00 0.00 0.00 19 815.4
20260505000221 70 221 0.0 6.1 0.00 0.00 0.00 19 815.3
20260504235721 70 209 0.9 6.1 0.00 0.00 0.00 19 815.5
20260504235221 70 218 0.9 10.4 0.00 0.00 0.00 19 815.6
20260504234728 70 205 1.7 13.0 0.00 0.00 0.00 19 815.7
20260504234720 70 284 0.9 10.4 0.00 0.00 0.00 19 815.7
20260504234222 70 269 0.9 7.8 0.00 0.00 0.00 19 815.7
20260504233222 70 214 1.7 13.0 0.00 0.00 0.00 18 815.7
20260504232724 71 308 0.9 13.0 0.00 0.00 0.00 19 815.7
20260504232720 71 306 0.9 13.0 0.00 0.00 0.00 18 815.6
20260504231719 71 214 1.7 13.0 0.00 0.00 0.00 18 815.7
20260504231219 71 271 0.9 13.9 0.00 0.00 0.00 18 815.7
20260504230723 71 311 0.9 9.6 0.00 0.00 0.00 19 815.7
20260504230719 71 211 0.9 13.9 0.00 0.00 0.00 20 815.8
20260504225716 72 281 0.9 7.8 0.00 0.00 0.00 19 815.7
20260504225217 73 221 0.9 11.3 0.00 0.00 0.00 18 815.7
20260504224717 73 238 0.9 11.3 0.00 0.00 0.00 18 815.9
20260504224214 74 288 0.9 9.6 0.00 0.00 0.00 19 815.9
20260504223714 73 250 0.9 9.6 0.00 0.00 0.00 18 815.9
20260504223213 73 191 0.9 7.0 0.00 0.00 0.00 19 815.9
20260504222713 73 267 0.9 15.6 0.00 0.00 0.00 19 816.1
20260504222214 73 212 0.9 15.6 0.00 0.00 0.00 19 816.1
20260504221713 72 235 0.9 7.0 0.00 0.00 0.00 20 815.9
20260504221212 72 242 1.7 11.3 0.00 0.00 0.00 19 816.0
20260504220713 72 267 0.9 11.3 0.00 0.00 0.00 19 816.0
20260504220217 72 200 0.9 12.2 0.00 0.00 0.00 19 816.1
20260504220213 72 242 0.9 12.2 0.00 0.00 0.00 19 815.9
20260504215218 72 342 0.9 9.6 0.00 0.00 0.00 18 816.3
20260504215213 72 238 0.9 8.7 0.00 0.00 0.00 19 816.3
20260504214213 72 206 1.7 9.6 0.00 0.00 0.00 19 816.4
20260504213714 72 255 1.7 10.4 0.00 0.00 0.00 20 816.4
20260504213213 72 202 1.7 13.9 0.00 0.00 0.00 20 816.5
20260504212712 72 288 0.9 13.9 0.00 0.00 0.00 21 816.4
20260504212214 72 273 0.9 10.4 0.00 0.00 0.00 21 816.4
20260504211713 72 212 0.9 7.8 0.00 0.00 0.00 22 816.6
20260504211213 72 221 0.9 7.8 0.00 0.00 0.00 21 816.5
20260504210718 73 277 0.9 5.2 0.00 0.00 0.00 21 816.7
20260504210714 72 201 0.9 7.8 0.00 0.00 0.00 21 816.6
20260504210318 73 263 0.9 7.8 0.00 0.00 0.00 21 816.9
20260504205712 73 263 0.9 7.8 0.00 0.00 0.00 21 816.9
20260504204713 72 236 0.9 8.7 0.00 0.00 0.00 21 817.1
20260504204214 72 227 0.9 9.6 0.00 0.00 0.00 21 817.2
20260504203713 72 213 1.7 13.0 0.00 0.00 0.00 20 817.1
20260504203213 71 277 1.7 13.0 0.00 0.00 0.00 20 817.2
20260504202712 72 227 0.9 12.2 0.00 0.00 0.00 19 817.2
20260504202213 71 326 0.9 12.2 0.00 0.00 0.00 20 817.2
20260504201712 71 248 0.9 14.8 0.00 0.00 0.00 20 817.3
20260504201211 71 285 1.7 14.8 0.00 0.00 0.00 20 817.2
20260504200711 71 261 1.7 13.0 0.00 0.00 0.00 21 817.2
20260504200210 71 204 1.7 12.2 0.00 0.00 0.00 20 817.3
20260504195711 72 210 0.9 12.2 0.00 0.00 0.00 20 817.3
20260504195215 71 226 0.9 8.7 0.00 0.00 0.00 20 817.2
20260504195210 72 267 0.9 8.7 0.00 0.00 0.00 20 817.3
20260504194209 71 251 0.9 8.7 0.00 0.00 0.00 20 817.3
20260504193714 71 213 0.9 11.3 0.00 0.00 0.00 21 817.4
20260504193709 71 282 0.9 8.7 0.00 0.00 0.00 21 817.4
20260504193209 71 311 0.9 11.3 0.00 0.00 0.00 21 817.3
20260504192817 71 165 1.7 9.6 0.00 0.00 0.00 20 817.3
20260504192314 71 253 0.9 9.6 0.00 0.00 0.00 20 817.4
20260504191208 71 303 0.9 8.7 0.00 0.00 0.00 20 817.6
20260504190713 71 242 1.7 18.2 0.00 0.00 0.00 21 817.7
20260504190709 71 249 1.7 15.6 0.00 0.00 0.00 22 817.5
20260504185708 71 164 1.7 18.2 0.00 0.00 0.00 20 817.8
20260504185208 71 307 0.9 13.0 0.00 0.00 0.00 18 818.0
20260504184713 71 233 1.7 10.4 0.00 0.00 0.00 20 817.9
20260504184707 70 217 1.7 10.4 0.00 0.00 0.00 20 818.0
20260504183707 70 273 0.9 7.0 0.00 0.00 0.00 20 818.1
20260504183206 70 275 1.7 8.7 0.00 0.00 0.00 21 818.2
20260504182712 71 263 0.9 7.0 0.00 0.00 0.00 23 817.9
20260504182706 71 219 1.7 8.7 0.00 0.00 0.00 19 818.1
20260504181706 70 14 1.7 13.9 0.00 0.00 0.00 25 817.8
20260504181204 69 199 1.7 13.9 0.00 0.00 0.00 23 817.8
20260504180704 69 273 0.9 7.8 0.00 0.00 0.00 23 817.8
20260504180208 69 259 0.9 8.7 0.00 0.00 0.00 25 818.1
20260504180204 69 245 0.9 8.7 0.00 0.00 0.00 26 818.0
20260504175203 69 264 0.9 10.4 0.00 0.00 0.00 25 818.2
20260504174704 69 275 1.7 10.4 0.00 0.00 0.00 25 818.1
20260504174206 68 300 1.7 8.7 0.00 0.00 0.00 27 818.1
20260504173705 68 271 0.9 7.8 0.00 0.00 0.00 28 818.2